STARLINK-11546, 62835

Orbit data source: Space-Track

STARLINK-11546, 62835 is a payload satellite owned by SpaceX/Seattle (US) in LEO that was launched on Mon, 27 Jan 2025 UTC via an FALCON 9 launch vehicle from the Air Force Eastern Test Range (AFETR). Payload-class satellites include a variety of spacecraft equipped with specific instruments for various scientific and technological missions. These include communications satellites like Starlink; space stations such as the ISS; scientific satellites like the Hubble; Earth observation satellites from companies like Planet Labs, Umbra, and HawkEye 360; GPS; miniature CubeSats for education and research; and military/defense satellites.

Loading next visibility...
Identifier
62835, 2025-019G
Orbit
LEO
Country
Flag of USUS
Related business
Manufacturer
SpaceX/Seattle
Mission
Operational Commercial Communications
Bus & Motor
STARLINK V2MD, Unknown motor
Mass
960 kg wet, ~910 kg dry
Launch date (UTC)
2025-01-27 (8 months ago)
Launch vehicle
FALCON 9
Launch site
Air Force Eastern Test Range (AFETR)
Object type
Payload
Rocket body
Debris
Shape & HBR
Box + 2 Pan, 14.5 m
Radar Cross Section
36.964 m², Large (>1 m²)

Expand to show TLE details & history
Last TLE update: 16 hours ago

TLE from 16 hours ago
0 STARLINK-11546
1 62835U 25019G   25259.40078528  .00264349  00000-0  20067-2 0  9993
2 62835  43.0001 277.0744 0001230 297.2355  62.8387 15.70745753 36461
Epoch: 2025-09-16T09:37Z
TLE epoch observation values (Epoch: 2025-09-16T09:37:07.848Z)
Latitude
-0.00002°
Longitude
137.20006°
Altitude
356.158 km
Speed
7.698 km/s
True Right ascension
18h 28m 17s
True Declination
0° 00' 00"
Sunlit
Object was in daylight at epoch
Visualization orbit readout
Latitude
Unknown
Longitude
Unknown
Altitude
Unknown
Speed
Unknown
Apparent Right ascension
Unknown
Apparent Declination
Unknown
Sunlit
N/A
Visualization observer readout
Local Sidereal Time
18:23:33
Azimuth
Unknown
Elevation
Unknown
Doppler factor
Unknown
Orbital elements
Apogee altitude
359.575 km
Perigee altitude
357.917 km
Semi-major axis
6,736.883 km
Eccentricity
0.00012
Inclination
43.0001°
RAAN
277.0744°
Arg. of periapsis
297.2355°
True anomaly
62.85124°
Mean anomaly
62.8387°
Eccentric anomaly
62.84497°
Mean motion
3.92514 °/min
Orbital period
91.72 mins
BSTAR
0.0020067
Loading maneuver chart data...
Computing Atmospheric mass density...
Loading historical data...
Loading historical data...
Loading historical data...
Loading historical data...
Loading historical data...
Loading historical data...
Loading historical data...

Documentation

Showing up to 5 results
|